Wind_Speed
9 8 9 9 9 9 8 8 7 7 7 6 6 7 7 7 7 7 6 6 5 5 5 5 5 5 5 5 5 5 4 4 4 3 3 3 3 3 3 3 2 2 3
8 8 9 9 9 9 8 7 7 6 6 6 6 6 6 6 6 6 5 5 4 4 4 4 4 5 4 4 4 4 4 4 4 3 3 3 3 3 3 3 2 3 3
8 8 8 8 8 7 7 6 6 6 6 5 5 5 5 5 5 5 5 5 5 4 4 4 4 4 4 3 3 3 3 3 3 3 3 3 3 3 4 3 3 2 2
8 8 7 7 7 7 6 6 5 5 5 5 5 4 5 5 5 4 5 5 4 4 4 4 3 4 3 3 3 3 3 3 3 3 3 3 3 3 3 3 3 2 2
7 7 6 6 6 6 5 5 5 4 5 5 4 4 5 5 4 4 4 4 4 3 4 4 3 3 3 3 3 3 3 3 3 3 3 3 2 3 3 2 3 2 2
8 7 6 6 5 5 5 5 4 4 4 4 3 3 4 4 3 3 3 3 3 3 3 3 3 3 3 3 2 3 3 3 3 3 4 2 2 2 3 3 3 2 2
8 7 7 6 6 6 5 5 4 4 4 4 4 3 3 3 3 3 3 3 3 3 3 3 3 3 2 2 2 2 2 2 3 3 3 2 2 2 3 3 2 2 2
7 7 7 6 6 6 5 5 4 4 3 3 3 3 3 3 3 3 3 3 3 3 3 3 2 3 3 3 2 1 1 1 2 2 3 2 2 2 2 2 2 3 2
6 6 6 6 6 6 6 5 4 4 3 3 2 2 3 3 3 3 4 3 3 4 3 2 2 2 2 2 2 1 1 2 2 2 2 2 2 2 2 2 2 2 3
7 6 5 5 5 5 5 4 4 3 3 2 2 3 3 4 3 3 4 4 3 3 3 2 2 2 2 2 2 2 2 2 1 2 2 2 2 1 1 2 2 2 2
7 6 6 5 5 5 5 4 4 4 3 3 3 3 3 3 3 3 3 3 3 3 2 2 2 1 1 2 2 1 1 2 1 1 1 2 2 2 2 1 1 1 2
7 7 6 5 5 5 5 5 5 4 4 4 3 3 3 3 3 2 3 2 3 3 2 1 1 2 2 1 1 1 1 2 1 0 1 1 2 2 2 1 1 1 1
7 7 7 6 6 6 5 6 5 5 5 4 4 3 3 3 3 2 2 2 2 2 1 1 2 2 2 1 1 1 1 1 1 1 1 1 1 1 1 1 1 1 1
8 7 7 7 6 6 6 6 6 5 5 4 4 3 3 3 2 1 1 1 1 1 1 1 2 2 2 2 2 2 2 1 2 1 1 2 1 1 1 1 1 1 1
8 7 7 7 7 6 6 6 6 5 5 4 4 3 3 3 2 0 0 1 1 0 1 1 2 2 2 2 2 2 2 2 2 2 2 2 2 2 2 2 1 1 2
8 8 7 7 7 6 6 6 5 5 4 4 4 3 3 2 2 2 1 0 1 1 1 1 1 1 1 2 2 2 3 2 2 3 3 3 3 3 3 3 2 3 3
9 8 8 7 7 7 7 7 6 5 5 4 3 3 3 2 2 2 2 1 1 1 1 1 1 1 2 2 2 3 3 3 3 3 4 4 4 4 4 4 4 4 5
9 9 8 7 7 6 6 6 6 6 5 4 3 3 3 2 2 2 2 1 1 1 1 1 1 2 3 3 3 4 3 3 3 4 4 4 5 5 5 5 6 6 5
9 8 8 7 7 6 6 6 6 5 5 4 4 3 3 2 1 1 1 1 1 1 1 1 2 3 3 4 4 4 4 4 4 4 5 5 5 5 6 6 7 7 6
8 7 7 6 6 6 5 5 5 4 4 4 3 3 3 2 2 1 1 1 1 2 2 2 2 3 4 4 5 5 5 5 5 6 6 6 6 6 7 7 7 7 8
6 6 5 5 5 5 4 4 4 4 4 4 3 3 3 3 2 2 2 3 3 4 4 4 4 4 5 5 5 5 6 6 6 7 7 7 8 9 9 9 9 9 9
5 5 4 4 3 4 4 4 4 4 4 4 3 3 3 4 3 4 4 4 5 5 5 5 5 6 5 5 6 7 7 7 7 8 9 10 10 10 10 11 11 11 11
5 5 4 4 3 3 3 3 4 4 4 4 4 3 4 4 5 5 5 6 6 6 6 7 6 6 7 7 7 8 8 8 8 9 10 11 12 12 12 13 13 13 13
5 6 5 4 3 3 3 4 5 5 6 5 5 5 5 5 6 7 7 8 7 8 8 8 8 9 9 10 9 10 10 10 10 11 13 13 12 13 13 14 14 13 14
5 6 6 5 4 4 4 4 5 6 6 6 6 6 7 7 8 8 8 9 9 9 10 10 10 10 10 11 11 12 12 12 12 13 14 14 14 14 15 15 15 14 15
6 6 7 7 6 6 6 6 7 7 7 8 8 8 9 9 9 9 9 10 10 11 11 12 12 12 12 13 14 14 14 15 15 15 15 15 15 15 15 16 16 16 17
Wind_Direction
88 87 86 87 88 88 88 90 94 92 90 89 89 94 97 101 105 106 109 110 113 117 117 116 112 112 115 108 100 97 97 92 86 85 82 84 84 86 90 94 100 107 117
90 91 88 89 88 92 92 90 91 90 91 94 95 99 100 107 110 108 110 111 110 116 116 114 106 109 113 106 96 93 96 91 89 88 84 82 73 74 79 86 95 103 113
85 83 84 90 92 93 92 91 90 90 90 94 99 103 102 107 113 105 105 109 112 115 116 110 101 107 107 100 93 88 88 86 83 81 79 73 62 66 74 74 93 109 111
81 80 82 85 93 95 92 88 89 90 88 89 93 104 108 108 111 107 107 109 111 115 117 114 105 103 100 98 91 85 76 69 67 67 77 66 57 71 75 75 94 115 114
78 80 84 80 90 94 92 87 88 89 86 90 95 109 113 111 114 115 110 110 114 114 111 111 105 97 94 94 83 79 76 73 66 60 64 64 65 69 67 77 88 107 120
74 76 78 78 86 91 95 92 89 84 86 90 97 108 118 117 112 111 111 110 113 112 108 109 102 90 85 82 75 75 74 74 70 64 54 59 83 88 73 79 92 97 114
64 65 68 71 73 77 79 83 87 82 85 86 87 90 102 112 111 107 108 115 115 112 109 105 102 84 78 70 68 69 77 74 65 59 50 51 91 106 100 89 81 85 92
61 59 66 74 73 70 70 79 81 79 79 85 86 88 93 95 109 114 115 117 119 116 111 106 101 75 68 62 60 49 38 61 54 56 58 65 95 117 109 86 84 85 82
62 61 67 79 79 71 70 73 72 76 77 86 92 95 108 102 109 118 117 117 119 117 108 101 91 75 54 52 61 59 35 69 66 62 66 65 73 92 106 87 77 81 76
62 64 70 83 85 78 74 71 72 82 83 89 94 108 114 111 112 123 122 120 123 121 109 96 84 78 62 53 60 59 44 49 75 73 71 65 72 84 94 87 80 72 66
59 64 72 89 88 77 72 71 72 71 75 81 79 106 111 110 109 127 126 119 125 119 108 97 78 54 49 47 46 50 59 48 80 105 66 56 55 60 72 80 68 51 48
67 72 77 88 89 82 70 71 73 65 75 76 80 96 100 101 100 117 134 128 122 119 109 81 52 34 35 31 20 32 54 61 54 32 5 26 42 49 59 52 28 17 35
71 71 75 82 90 85 74 70 73 72 71 71 71 83 88 94 96 99 136 133 120 106 80 53 47 33 29 7 24 12 5 30 33 37 356 350 8 17 25 27 13 345 331
75 73 70 73 81 79 76 72 76 73 66 62 62 70 84 89 96 103 174 175 122 82 65 55 43 29 22 360 5 6 31 38 11 14 358 347 348 343 333 338 335 321 304
75 76 72 72 74 76 73 69 67 68 65 60 63 74 90 95 93 118 187 123 120 83 25 18 20 22 21 11 4 355 4 15 343 334 332 325 323 319 301 292 306 310 298
73 74 74 74 71 70 66 63 59 63 63 67 66 79 85 86 76 74 71 157 145 77 24 351 351 356 0 356 341 341 346 339 326 326 315 310 311 310 300 297 295 292 291
67 66 69 72 72 70 70 66 59 59 61 65 70 77 82 79 63 60 63 70 56 17 13 343 292 284 314 312 325 332 326 317 316 307 308 309 308 306 301 290 288 288 289
62 62 64 64 66 68 69 67 60 63 59 60 68 75 73 70 53 70 88 86 50 3 7 350 287 278 294 298 304 313 311 305 300 300 303 305 306 307 296 290 285 280 277
59 57 56 56 57 61 64 64 59 61 53 49 52 56 55 45 32 70 95 88 56 11 355 326 296 293 296 292 294 301 304 302 291 291 296 300 301 301 294 291 285 280 275
55 51 48 48 51 53 56 58 55 49 41 37 40 34 39 19 359 352 310 314 333 344 340 309 289 291 293 295 294 296 298 293 288 293 293 296 296 294 294 295 291 282 278
43 41 39 39 39 40 38 35 34 29 23 23 16 10 8 355 350 336 314 317 312 312 318 319 303 298 296 294 290 290 286 286 287 288 294 297 294 290 289 291 289 286 281
28 24 26 28 25 23 23 15 7 2 3 355 353 4 352 341 338 327 298 299 300 300 297 304 304 301 302 298 295 289 282 290 290 293 294 296 290 287 288 288 284 282 282
21 23 18 20 12 2 2 355 348 352 350 346 345 339 329 331 326 312 301 291 290 294 294 295 300 300 298 298 294 293 294 290 292 292 294 292 285 283 284 282 282 279 276
11 12 2 5 8 5 358 351 340 341 343 334 328 325 323 324 320 312 303 301 292 298 294 294 298 296 294 293 292 289 287 287 286 289 290 291 289 288 286 282 282 282 279
345 349 353 351 348 345 338 333 331 324 324 320 315 313 307 310 317 312 306 302 295 293 293 293 300 297 294 292 290 293 290 286 287 290 288 290 290 287 283 284 285 283 282
319 334 338 334 329 326 324 317 311 309 309 306 305 303 303 306 310 307 303 303 297 290 289 289 294 294 293 290 289 292 292 290 291 292 289 288 287 285 282 282 281 281 283
Height
5900 5900 5900 5900 5900 5900 5901 5901 5901 5900 5900 5900 5900 5900 5900 5900 5900 5900 5900 5900 5901 5901 5901 5901 5901 5901 5902 5901 5901 5901 5901 5900 5900 5900 5899 5898 5898 5897 5896 5896 5896 5895 5895
5902 5901 5901 5901 5901 5902 5902 5902 5902 5902 5902 5902 5902 5901 5901 5901 5901 5901 5902 5902 5902 5902 5902 5902 5902 5902 5902 5902 5902 5902 5901 5901 5900 5900 5899 5899 5898 5897 5896 5896 5896 5896 5895
5903 5903 5903 5902 5903 5903 5903 5903 5904 5904 5904 5903 5903 5903 5903 5902 5902 5903 5903 5903 5903 5903 5903 5903 5903 5903 5903 5903 5902 5902 5901 5901 5901 5900 5900 5899 5898 5897 5897 5896 5896 5896 5896
5904 5904 5904 5904 5904 5904 5904 5904 5905 5905 5905 5904 5904 5904 5904 5904 5904 5904 5904 5904 5903 5903 5904 5903 5904 5903 5903 5903 5903 5902 5902 5901 5901 5900 5900 5899 5899 5898 5897 5897 5897 5896 5896
5905 5905 5905 5905 5905 5905 5905 5905 5905 5906 5905 5905 5905 5905 5905 5904 5904 5904 5904 5904 5904 5904 5904 5904 5904 5904 5904 5904 5903 5903 5903 5902 5901 5901 5900 5900 5899 5898 5898 5897 5897 5897 5896
5906 5906 5906 5906 5906 5906 5906 5906 5906 5906 5906 5906 5906 5906 5905 5905 5905 5905 5905 5905 5905 5905 5905 5905 5905 5905 5904 5904 5904 5903 5903 5902 5901 5901 5900 5899 5899 5899 5898 5898 5897 5897 5897
5907 5907 5907 5907 5907 5907 5907 5907 5907 5907 5907 5907 5906 5906 5906 5906 5906 5905 5905 5906 5905 5905 5905 5905 5905 5905 5905 5904 5904 5903 5903 5902 5902 5901 5900 5899 5899 5899 5898 5898 5898 5897 5897
5908 5908 5908 5907 5908 5908 5908 5908 5907 5907 5907 5907 5907 5907 5906 5906 5906 5906 5906 5906 5906 5906 5906 5905 5905 5905 5905 5905 5904 5904 5903 5902 5902 5902 5901 5900 5900 5899 5899 5898 5898 5897 5897
5908 5908 5908 5908 5908 5908 5908 5908 5908 5908 5908 5908 5907 5907 5907 5907 5906 5906 5906 5906 5906 5906 5906 5906 5906 5905 5905 5905 5904 5904 5903 5902 5902 5902 5901 5901 5900 5899 5899 5898 5898 5898 5897
5909 5909 5909 5909 5909 5909 5909 5908 5908 5908 5908 5908 5908 5907 5907 5907 5907 5907 5907 5906 5906 5906 5906 5906 5906 5905 5905 5905 5904 5904 5903 5902 5902 5902 5901 5901 5900 5900 5899 5899 5898 5898 5897
5909 5909 5909 5909 5910 5910 5909 5909 5909 5909 5908 5908 5908 5907 5907 5907 5907 5907 5907 5907 5907 5907 5906 5906 5906 5905 5905 5905 5904 5904 5903 5903 5902 5902 5902 5901 5901 5900 5899 5899 5898 5898 5898
5910 5910 5910 5910 5910 5910 5910 5910 5909 5909 5909 5908 5908 5908 5908 5908 5908 5908 5907 5907 5907 5907 5906 5906 5906 5905 5905 5905 5904 5904 5903 5903 5902 5902 5902 5901 5901 5900 5900 5899 5898 5898 5898
5910 5910 5910 5911 5911 5910 5910 5910 5910 5910 5909 5909 5908 5908 5908 5908 5908 5908 5908 5908 5907 5907 5907 5906 5906 5905 5905 5905 5904 5904 5903 5903 5903 5902 5902 5901 5901 5900 5900 5899 5898 5898 5897
5912 5911 5911 5911 5911 5911 5911 5911 5910 5910 5910 5909 5909 5908 5908 5908 5909 5908 5908 5908 5908 5907 5907 5906 5906 5906 5905 5905 5904 5904 5903 5903 5903 5902 5902 5901 5901 5900 5900 5899 5898 5898 5897
5913 5913 5912 5912 5912 5912 5911 5911 5911 5911 5910 5909 5909 5909 5909 5909 5909 5908 5908 5908 5908 5907 5907 5907 5906 5906 5906 5905 5905 5904 5904 5903 5903 5902 5902 5901 5900 5900 5899 5898 5898 5897 5896
5913 5913 5913 5913 5913 5912 5912 5912 5911 5911 5910 5910 5909 5909 5909 5909 5909 5908 5908 5908 5908 5907 5907 5907 5906 5906 5906 5905 5905 5905 5904 5903 5903 5902 5901 5900 5900 5899 5899 5898 5897 5897 5896
5914 5914 5914 5913 5913 5913 5913 5912 5912 5911 5910 5910 5910 5909 5909 5909 5909 5908 5908 5908 5908 5907 5907 5906 5906 5906 5906 5905 5905 5904 5904 5903 5902 5901 5900 5900 5899 5899 5898 5897 5896 5896 5895
5915 5915 5914 5914 5914 5914 5913 5913 5912 5911 5911 5910 5910 5910 5909 5909 5909 5908 5908 5908 5908 5907 5906 5906 5906 5905 5905 5905 5904 5904 5903 5902 5902 5900 5900 5899 5898 5897 5897 5896 5895 5894 5893
5916 5916 5915 5915 5915 5914 5914 5913 5913 5912 5912 5911 5910 5910 5910 5909 5909 5908 5908 5907 5907 5907 5906 5905 5905 5904 5904 5903 5903 5902 5902 5901 5901 5899 5899 5897 5897 5896 5895 5894 5893 5892 5892
5917 5916 5916 5916 5915 5915 5914 5913 5913 5912 5912 5911 5911 5910 5910 5909 5908 5908 5907 5907 5907 5906 5905 5905 5904 5904 5903 5902 5902 5901 5901 5900 5899 5898 5897 5896 5895 5894 5893 5892 5891 5890 5890
5918 5917 5916 5916 5915 5915 5914 5913 5913 5912 5911 5911 5910 5910 5909 5908 5908 5907 5907 5906 5906 5905 5905 5904 5903 5903 5902 5901 5900 5900 5899 5899 5898 5897 5896 5895 5893 5892 5891 5890 5889 5888 5887
5918 5917 5916 5915 5915 5914 5914 5913 5913 5912 5911 5911 5910 5909 5909 5908 5907 5906 5905 5905 5905 5904 5903 5903 5902 5901 5900 5900 5899 5898 5897 5897 5896 5894 5893 5892 5891 5889 5888 5887 5886 5886 5884
5917 5916 5915 5915 5914 5914 5913 5913 5912 5911 5911 5910 5909 5908 5908 5907 5906 5905 5904 5904 5903 5902 5901 5900 5899 5899 5898 5898 5897 5896 5895 5894 5893 5892 5890 5889 5888 5886 5885 5884 5883 5881 5881
5917 5916 5915 5914 5913 5913 5912 5911 5911 5910 5909 5909 5908 5907 5906 5905 5904 5903 5901 5901 5900 5900 5899 5898 5897 5896 5895 5895 5894 5893 5892 5891 5890 5889 5888 5886 5884 5883 5882 5881 5879 5877 5877
5916 5915 5914 5913 5912 5912 5911 5910 5910 5909 5908 5907 5906 5905 5904 5903 5902 5901 5900 5899 5898 5897 5896 5895 5895 5893 5893 5892 5891 5890 5889 5888 5886 5886 5884 5882 5880 5879 5878 5877 5875 5874 5873
5915 5913 5913 5912 5911 5910 5909 5909 5908 5907 5906 5905 5904 5903 5902 5901 5900 5899 5898 5897 5895 5894 5893 5892 5891 5891 5889 5888 5887 5886 5885 5884 5882 5881 5880 5878 5877 5875 5874 5872 5871 5870 5868